Flag for Poland Weather past 2 weeks in Opole, Poland

Now
77 °F

Passing clouds.


Feels Like: 79 °F
Forecast: 69 / 88 °F
Wind: 5 mph from Southeast

Location: Wroclaw Ii

Current Time: Aug 4, 2015 at 9:38:07 AM

Latest Report: Aug 4, 2015 at 9:00 AM


Visibility: N/A

Pressure: 30.04 "Hg

Humidity: 57%

Dew point: 61 °F

Location of OpoleLocation

Historic Weather in Opole — Graph

°F

Opole temperature yesterday

Maximum temperature yesterday: 90 °F (at 5:00 PM)
Minimum temperature yesterday: 57 °F (at 4:30 AM)
Average temperature yesterday: 75 °F

Past Weeks' High & Low Weather Summary

 TemperatureHumidityPressure
High93 °F (Jul 22, 2:30 PM)94% (Jul 22, 1:30 AM)30.15 "Hg (Jul 22, 1:30 AM)
Low48 °F (Aug 1, 3:30 AM)16% (Jul 21, 8:30 AM)29.65 "Hg (Jul 25, 12:00 PM)
Average70 °F60%29.93 "Hg
* Reported Jul 20 8:00 AM — Aug 4 8:30 AM, Opole, Weather by CustomWeather, © 2015

Note: Actual official high and low records may vary slightly from our data, if they occured in-between our weather recording intervals... More about our weather records

Advertising

Opole weather history for previous 24 hours

 ConditionsComfort  
Time TempWeatherWind HumidityBarometerVisibility
8:30 AM
Tue, Aug 4
73 °FSunny.5 mph61%30.04 "Hg10 mi
8:00 AM70 °FSunny.6 mph69%30.04 "Hg10 mi
7:30 AM68 °FSunny.3 mph78%30.07 "Hg10 mi
7:00 AM64 °FSunny.3 mph83%30.07 "Hg10 mi
6:30 AM61 °FSunny.5 mph88%30.04 "Hg10 mi
6:00 AM61 °FClear.3 mph88%30.04 "Hg10 mi
5:30 AM61 °FClear.2 mph88%30.04 "Hg10 mi
5:00 AM61 °FClear.1 mph88%30.04 "Hg10 mi
4:30 AM63 °FClear.No wind83%30.04 "Hg10 mi
4:00 AM63 °FClear.1 mph83%30.04 "Hg10 mi
3:30 AM63 °FClear.1 mph83%30.07 "Hg10 mi
3:00 AM63 °FClear.2 mph83%30.07 "Hg10 mi
2:30 AM63 °FClear.1 mph88%30.07 "Hg10 mi
2:00 AM64 °FClear.1 mph83%30.07 "Hg10 mi
1:30 AM66 °FClear.2 mph78%30.07 "Hg10 mi
1:00 AM68 °FClear.1 mph73%30.07 "Hg10 mi
12:00 AM70 °FClear.2 mph69%30.07 "Hg10 mi
11:30 PM
Mon, Aug 3
72 °FClear.2 mph61%30.07 "Hg10 mi
11:00 PM72 °FClear.1 mph65%30.07 "Hg10 mi
10:30 PM73 °FClear.No wind57%30.07 "Hg10 mi
10:00 PM75 °FClear.1 mph54%30.07 "Hg10 mi
9:30 PM75 °FSunny.2 mph54%30.07 "Hg10 mi
9:00 PM77 °FSunny.No wind51%30.07 "Hg10 mi
8:30 PM79 °FSunny.No wind48%30.07 "Hg10 mi
8:00 PM82 °FSunny.1 mph40%30.07 "Hg10 mi
7:30 PM86 °FSunny.2 mph35%30.07 "Hg10 mi
7:00 PM88 °FSunny.5 mph33%30.07 "Hg10 mi
6:30 PM88 °FSunny.3 mph31%30.07 "Hg10 mi
6:00 PM88 °FSunny.3 mph29%30.07 "Hg10 mi
5:30 PM90 °FSunny.3 mph27%30.09 "Hg10 mi
5:00 PM90 °FSunny.2 mph27%30.09 "Hg10 mi
4:30 PM88 °FSunny.3 mph29%30.09 "Hg10 mi
4:00 PM88 °FSunny.3 mph29%30.09 "Hg10 mi
3:30 PM88 °FSunny.3 mph29%30.09 "Hg10 mi
3:00 PM88 °FPassing clouds.6 mph29%30.12 "HgN/A
2:30 PM88 °FSunny.9 mph29%30.12 "Hg10 mi
2:00 PM86 °FPassing clouds.6 mph31%30.12 "HgN/A
1:30 PM86 °FSunny.7 mph29%30.12 "Hg10 mi
1:00 PM86 °FPassing clouds.7 mph29%30.15 "HgN/A
12:30 PM84 °FSunny.6 mph37%30.15 "Hg10 mi
12:00 PM84 °FSunny.5 mph31%30.15 "Hg10 mi
11:30 AM82 °FSunny.5 mph32%30.15 "Hg10 mi
11:00 AM82 °FSunny.5 mph35%30.15 "Hg10 mi
10:30 AM81 °FPassing clouds.6 mph39%30.15 "HgN/A
10:00 AM79 °FSunny.2 mph45%30.15 "Hg10 mi
9:30 AM77 °FSunny.2 mph51%30.15 "Hg10 mi
9:00 AM73 °FSunny.1 mph57%30.15 "Hg10 mi
Weather by CustomWeather, © 2015

See weather overviewHow to use our weather pages